TimeHST,TemperatureF,Dew PointF,Humidity,Sea Level PressureIn,VisibilityMPH,Wind Direction,Wind SpeedMPH,Gust SpeedMPH,PrecipitationIn,Events,Conditions,WindDirDegrees,DateUTC
12:53 AM,66.0,60.1,81,30.01,10.0,Calm,Calm,-,N/A,,Partly Cloudy,0,2013-11-25 10:53:00
1:37 AM,64.4,60.8,88,29.99,10.0,Calm,Calm,-,N/A,,Partly Cloudy,0,2013-11-25 11:37:00
1:53 AM,63.0,60.1,90,30.01,10.0,Calm,Calm,-,N/A,,Clear,0,2013-11-25 11:53:00
2:49 AM,62.6,59.0,88,29.99,10.0,Calm,Calm,-,N/A,,Mostly Cloudy,0,2013-11-25 12:49:00
2:53 AM,62.1,60.1,93,30.01,10.0,Calm,Calm,-,N/A,,Mostly Cloudy,0,2013-11-25 12:53:00
3:53 AM,66.0,61.0,84,30.01,10.0,Calm,Calm,-,N/A,,Partly Cloudy,0,2013-11-25 13:53:00
4:53 AM,64.0,61.0,90,30.01,10.0,Calm,Calm,-,N/A,,Scattered Clouds,0,2013-11-25 14:53:00
5:53 AM,64.9,60.1,84,30.03,10.0,Calm,Calm,-,N/A,,Clear,0,2013-11-25 15:53:00
6:53 AM,64.9,60.1,84,30.04,10.0,Calm,Calm,-,N/A,,Clear,0,2013-11-25 16:53:00
7:53 AM,69.1,62.1,78,30.06,10.0,Calm,Calm,-,N/A,,Clear,0,2013-11-25 17:53:00
8:53 AM,73.9,63.0,68,30.06,10.0,Variable,3.5,-,N/A,,Partly Cloudy,0,2013-11-25 18:53:00
9:53 AM,78.1,63.0,60,30.06,10.0,Variable,6.9,-,N/A,,Partly Cloudy,0,2013-11-25 19:53:00
10:53 AM,79.0,61.0,54,30.06,10.0,Variable,5.8,16.1,N/A,,Mostly Cloudy,0,2013-11-25 20:53:00
11:53 AM,79.0,60.1,52,30.04,10.0,Variable,4.6,-,N/A,,Mostly Cloudy,0,2013-11-25 21:53:00
12:53 PM,81.0,61.0,50,30.01,10.0,ESE,8.1,-,N/A,,Mostly Cloudy,110,2013-11-25 22:53:00
1:53 PM,80.1,59.0,48,29.99,10.0,Variable,5.8,-,N/A,,Partly Cloudy,0,2013-11-25 23:53:00
2:53 PM,80.1,60.1,50,29.99,10.0,East,5.8,19.6,N/A,,Partly Cloudy,90,2013-11-26 00:53:00
3:53 PM,78.1,60.1,54,30.00,10.0,Variable,5.8,-,N/A,,Mostly Cloudy,0,2013-11-26 01:53:00
4:53 PM,77.0,60.1,56,30.01,10.0,East,9.2,-,N/A,,Clear,80,2013-11-26 02:53:00
5:53 PM,73.0,60.1,64,30.04,10.0,Variable,4.6,-,N/A,,Clear,0,2013-11-26 03:53:00
6:53 PM,71.1,61.0,70,30.06,10.0,ENE,3.5,-,N/A,,Clear,60,2013-11-26 04:53:00
7:53 PM,69.1,61.0,75,30.08,10.0,Calm,Calm,-,N/A,,Clear,0,2013-11-26 05:53:00
8:53 PM,66.9,61.0,81,30.10,10.0,Calm,Calm,-,N/A,,Clear,0,2013-11-26 06:53:00
9:02 PM,66.2,60.8,83,30.09,10.0,Calm,Calm,-,N/A,,Scattered Clouds,0,2013-11-26 07:02:00
9:53 PM,64.9,60.1,84,30.11,10.0,Calm,Calm,-,N/A,,Clear,0,2013-11-26 07:53:00
10:39 PM,64.4,60.8,88,30.09,10.0,Calm,Calm,-,N/A,,Scattered Clouds,0,2013-11-26 08:39:00
10:53 PM,63.0,60.1,90,30.11,10.0,Calm,Calm,-,N/A,,Partly Cloudy,0,2013-11-26 08:53:00
11:53 PM,66.9,61.0,81,30.11,10.0,Calm,Calm,-,N/A,,Clear,0,2013-11-26 09:53:00